When you browse on this site, cookies collect data to enhance your experience and personalize the content and advertising you see.
Visit our Privacy Policy to learn more. By continuing to use the site, you agree to this use of cookies and data.
  • In Hungary
  • List of Countries
  • For 7 days
  • Water Temperature
  • Weather Map
  • News
  • Weather Widgets
  • user-avatar
    Login

    Hourly Weather Pridorozhe

    Today, 7 December, Saturday

    Time Temperature Precipitation Wind Pressure Humidity
    00:00 -1°C° 0.1 mm 5 mps 739 mmHg 88%
    01:00 -1°C° 0.1 mm 5 mps 739 mmHg 89%
    02:00 -1°C° 0 mm 4 mps 739 mmHg 89%
    03:00 -1°C° 0.3 mm 4 mps 739 mmHg 90%
    04:00 -1°C° 0.3 mm 5 mps 738 mmHg 92%
    05:00 -2°C° 0.3 mm 5 mps 738 mmHg 93%
    06:00 -2°C° 0.8 mm 5 mps 738 mmHg 93%
    07:00 -2°C° 0.8 mm 5 mps 738 mmHg 93%
    08:00 -2°C° 0 mm 5 mps 738 mmHg 93%
    09:00 -2°C° 0.4 mm 5 mps 737 mmHg 91%
    10:00 -2°C° 0.4 mm 5 mps 737 mmHg 89%
    11:00 -2°C° 0.4 mm 5 mps 736 mmHg 87%
    12:00 -2°C° 0 mm 5 mps 736 mmHg 84%
    13:00 -3°C° 0 mm 6 mps 735 mmHg 81%
    14:00 -2°C° 0 mm 6 mps 735 mmHg 78%
    15:00 -2°C° 0 mm 6 mps 735 mmHg 81%
    16:00 -2°C° 0 mm 6 mps 734 mmHg 84%
    17:00 -2°C° 0 mm 6 mps 734 mmHg 87%
    18:00 -2°C° 0.1 mm 6 mps 734 mmHg 88%
    19:00 -1°C° 0.1 mm 6 mps 733 mmHg 89%
    20:00 -1°C° 0.1 mm 6 mps 733 mmHg 90%
    21:00 +1°C° 0.2 mm 6 mps 733 mmHg 90%
    22:00 0°C° 0.2 mm 7 mps 732 mmHg 90%
    23:00 +2°C° 0.2 mm 7 mps 732 mmHg 90%

    Tomorrow, 8 December, Sunday

    Time Temperature Precipitation Wind Pressure Humidity
    00:00 +2°C° 0.1 mm 7 mps 732 mmHg 87%
    01:00 0°C° 0.1 mm 7 mps 733 mmHg 84%
    02:00 0°C° 0.1 mm 7 mps 733 mmHg 81%
    03:00 0°C° 0 mm 7 mps 733 mmHg 82%
    04:00 0°C° 0 mm 7 mps 733 mmHg 82%
    05:00 0°C° 0 mm 7 mps 733 mmHg 82%
    06:00 -1°C° 0 mm 7 mps 734 mmHg 83%
    07:00 -1°C° 0 mm 7 mps 735 mmHg 83%
    08:00 -1°C° 0 mm 6 mps 736 mmHg 83%
    09:00 -1°C° 0 mm 6 mps 736 mmHg 83%
    10:00 -1°C° 0 mm 6 mps 737 mmHg 83%
    11:00 0°C° 0 mm 5 mps 738 mmHg 83%
    12:00 0°C° 0 mm 5 mps 738 mmHg 82%
    13:00 0°C° 0 mm 5 mps 737 mmHg 82%
    14:00 0°C° 0 mm 5 mps 737 mmHg 81%
    15:00 0°C° 0 mm 5 mps 737 mmHg 83%
    16:00 0°C° 0 mm 5 mps 737 mmHg 85%
    17:00 +1°C° 0 mm 5 mps 737 mmHg 87%
    18:00 +1°C° 0.1 mm 5 mps 736 mmHg 89%
    19:00 +2°C° 0.1 mm 6 mps 736 mmHg 90%
    20:00 +2°C° 0.1 mm 6 mps 736 mmHg 91%
    21:00 +2°C° 0.2 mm 7 mps 735 mmHg 90%
    22:00 +2°C° 0.2 mm 7 mps 735 mmHg 89%
    23:00 +2°C° 0.2 mm 8 mps 734 mmHg 87%

    Day after tomorrow, 9 December, Monday

    Time Temperature Precipitation Wind Pressure Humidity
    00:00 +3°C° 0.1 mm 7 mps 734 mmHg 87%
    01:00 +2°C° 0.1 mm 7 mps 733 mmHg 87%
    02:00 +2°C° 0.1 mm 7 mps 733 mmHg 87%
    03:00 +3°C° 0.1 mm 7 mps 733 mmHg 88%
    04:00 +3°C° 0.1 mm 6 mps 733 mmHg 89%
    05:00 +3°C° 0.1 mm 6 mps 733 mmHg 91%
    06:00 +3°C° 0.1 mm 6 mps 733 mmHg 90%
    07:00 +3°C° 0.1 mm 6 mps 733 mmHg 90%
    08:00 +4°C° 0.1 mm 6 mps 733 mmHg 89%
    09:00 +4°C° 0.1 mm 6 mps 733 mmHg 89%
    10:00 +4°C° 0.1 mm 6 mps 733 mmHg 88%
    11:00 +4°C° 0.1 mm 6 mps 733 mmHg 87%
    12:00 +4°C° 0.2 mm 6 mps 733 mmHg 85%
    13:00 +5°C° 0.2 mm 5 mps 733 mmHg 84%
    14:00 +5°C° 0.2 mm 5 mps 733 mmHg 83%
    15:00 +5°C° 0.1 mm 5 mps 733 mmHg 84%
    16:00 +5°C° 0.1 mm 5 mps 733 mmHg 86%
    17:00 +5°C° 0.1 mm 4 mps 733 mmHg 87%
    18:00 +4°C° 0.1 mm 4 mps 734 mmHg 87%
    19:00 +4°C° 0.1 mm 4 mps 735 mmHg 87%
    20:00 +4°C° 0.1 mm 4 mps 735 mmHg 86%
    21:00 +3°C° 0 mm 4 mps 736 mmHg 87%
    22:00 +3°C° 0 mm 4 mps 736 mmHg 88%
    23:00 +1°C° 0 mm 4 mps 736 mmHg 89%

    10 December, Tuesday

    Time Temperature Precipitation Wind Pressure Humidity
    00:00 +1°C° 0 mm 4 mps 737 mmHg 89%
    01:00 +1°C° 0 mm 4 mps 737 mmHg 90%
    02:00 +1°C° 0 mm 4 mps 737 mmHg 90%
    03:00 +1°C° 0 mm 4 mps 737 mmHg 91%
    04:00 0°C° 0 mm 4 mps 737 mmHg 91%
    05:00 0°C° 0 mm 4 mps 737 mmHg 92%
    06:00 +1°C° 0 mm 4 mps 738 mmHg 92%
    07:00 +1°C° 0 mm 4 mps 738 mmHg 91%
    08:00 +1°C° 0 mm 4 mps 738 mmHg 91%
    09:00 +1°C° 0 mm 5 mps 738 mmHg 89%
    10:00 +2°C° 0 mm 5 mps 739 mmHg 87%
    11:00 +2°C° 0 mm 5 mps 739 mmHg 85%
    12:00 +2°C° 0 mm 5 mps 739 mmHg 86%
    13:00 +2°C° 0 mm 5 mps 740 mmHg 86%
    14:00 +2°C° 0 mm 5 mps 740 mmHg 86%
    15:00 +2°C° 0.2 mm 5 mps 740 mmHg 89%
    16:00 +1°C° 0.2 mm 5 mps 741 mmHg 91%
    17:00 +1°C° 0.2 mm 5 mps 742 mmHg 94%
    18:00 0°C° 0.2 mm 5 mps 743 mmHg 89%
    19:00 -1°C° 0.2 mm 4 mps 744 mmHg 84%
    20:00 -1°C° 0.2 mm 4 mps 745 mmHg 79%
    21:00 -2°C° 0 mm 4 mps 745 mmHg 78%
    22:00 -2°C° 0 mm 4 mps 746 mmHg 78%
    23:00 -3°C° 0 mm 4 mps 747 mmHg 78%

    11 December, Wednesday

    Time Temperature Precipitation Wind Pressure Humidity
    00:00 -3°C° 0 mm 4 mps 748 mmHg 77%
    01:00 -3°C° 0 mm 4 mps 748 mmHg 77%
    02:00 -3°C° 0 mm 4 mps 749 mmHg 76%
    03:00 -3°C° 0 mm 4 mps 749 mmHg 76%
    04:00 -3°C° 0 mm 4 mps 750 mmHg 76%
    05:00 -3°C° 0 mm 4 mps 750 mmHg 76%
    06:00 -2°C° 0 mm 3 mps 750 mmHg 77%
    07:00 -2°C° 0 mm 3 mps 751 mmHg 78%
    08:00 -2°C° 0 mm 3 mps 751 mmHg 79%
    09:00 -2°C° 0 mm 3 mps 751 mmHg 77%
    10:00 -2°C° 0 mm 3 mps 751 mmHg 74%
    11:00 -1°C° 0 mm 3 mps 752 mmHg 72%
    12:00 -1°C° 0 mm 3 mps 751 mmHg 69%
    13:00 -1°C° 0 mm 3 mps 751 mmHg 67%
    14:00 -1°C° 0 mm 2 mps 751 mmHg 65%
    15:00 -1°C° 0 mm 3 mps 751 mmHg 66%
    16:00 -2°C° 0 mm 3 mps 751 mmHg 68%
    17:00 -2°C° 0 mm 3 mps 751 mmHg 70%
    18:00 -2°C° 0 mm 3 mps 751 mmHg 67%
    19:00 -2°C° 0 mm 3 mps 751 mmHg 65%
    20:00 -3°C° 0 mm 4 mps 751 mmHg 62%
    21:00 -3°C° 0 mm 4 mps 751 mmHg 61%
    22:00 -3°C° 0 mm 4 mps 751 mmHg 59%
    23:00 -3°C° 0 mm 4 mps 751 mmHg 58%

    12 December, Thursday

    Time Temperature Precipitation Wind Pressure Humidity
    00:00 -3°C° 0 mm 4 mps 750 mmHg 58%
    01:00 -3°C° 0 mm 4 mps 750 mmHg 58%
    02:00 -4°C° 0 mm 4 mps 750 mmHg 58%
    03:00 -4°C° 0 mm 4 mps 750 mmHg 59%
    04:00 -4°C° 0 mm 4 mps 749 mmHg 60%
    05:00 -4°C° 0 mm 4 mps 749 mmHg 61%
    06:00 -4°C° 0 mm 4 mps 749 mmHg 62%
    07:00 -4°C° 0 mm 4 mps 749 mmHg 64%
    08:00 -4°C° 0 mm 4 mps 749 mmHg 66%
    09:00 -5°C° 0 mm 5 mps 748 mmHg 67%
    10:00 -4°C° 0 mm 5 mps 748 mmHg 68%
    11:00 -4°C° 0 mm 5 mps 748 mmHg 69%
    12:00 -4°C° 0 mm 5 mps 748 mmHg 71%
    13:00 -2°C° 0 mm 5 mps 748 mmHg 73%
    14:00 -2°C° 0 mm 4 mps 748 mmHg 75%
    15:00 -2°C° 0 mm 4 mps 747 mmHg 78%
    16:00 -3°C° 0 mm 4 mps 747 mmHg 81%
    17:00 -3°C° 0 mm 4 mps 747 mmHg 84%
    18:00 -3°C° 0 mm 4 mps 747 mmHg 84%
    19:00 -3°C° 0 mm 4 mps 747 mmHg 84%
    20:00 -3°C° 0 mm 4 mps 747 mmHg 84%
    21:00 -2°C° 0 mm 4 mps 747 mmHg 84%
    22:00 -2°C° 0 mm 4 mps 747 mmHg 83%
    23:00 -2°C° 0 mm 5 mps 747 mmHg 83%
    Show more